Location: Dana
(41.8364°N, 106.7042°W)
Time: 14:46:46
(UTC+00:00)

Tiros 1 despin weight - Pass Details

Date: 14 May 2026
Orbit: 554 x 591 km, 48.2° (Epoch: 6 June)

Event Time Altitude Azimuth Distance (km) Brightness Sun altitude
Rises 15:19:20 0° 285° (WNW) 2,740 ? 37.5°
Reaches altitude 10° 15:21:46 10° 295° (WNW) 1,841 ? 38.0°
Maximum altitude 15:25:36 33° 1° (N) 936 ? 38.7°
Drops below altitude 10° 15:29:25 10° 67° (ENE) 1,834 ? 39.4°
Sets 15:31:50 0° 77° (ENE) 2,728 ? 39.8°
